Location: Bieg
(49.3499°N, 10.3835°E)
Time: 01:26:36
(UTC+00:00)

Cosmos 2333 Rocket - Pass Details

Date: 23 May 2024
Orbit: 839 x 863 km, 70.8° (Epoch: 12 June)

Event Time Altitude Azimuth Distance (km) Brightness Sun altitude
Rises 00:46:03 0° 333° (NNW) 3,423 6.0 -17.2°
Reaches altitude 10° 00:48:39 10° 340° (NNW) 2,488 5.3 -17.0°
Maximum altitude 00:54:05 43° 52° (NE) 1,192 3.4 -16.6°
Drops below altitude 10° 00:59:30 10° 123° (ESE) 2,490 4.6 -16.3°
Sets 01:02:06 0° 130° (SE) 3,426 5.2 -16.1°
